Weather History for FAGG - February, 2014

Change the Weather History Date:

Wednesday, February 12, 2014

  Actual Average Record
Temperature  
Mean Temperature 71 °F -  
Max Temperature 80 °F 74 °F 93 °F (2001)
Min Temperature 62 °F 58 °F 55 °F (2002)
Cooling Degree Days 6    
Growing Degree Days 21 (Base 50)    
Moisture  
Dew Point 65 °F    
Average Humidity 79    
Maximum Humidity 94    
Minimum Humidity 60    
Precipitation  
Precipitation 0.00 in - - ()
Sea Level Pressure  
Sea Level Pressure 29.86 in    
Wind  
Wind Speed 4 mph ()    
Max Wind Speed 13 mph    
Max Gust Speed -    
Visibility 7.1 miles    
Events Fog    
Averages and records for this station are not official NWS values.
T = Trace of Precipitation, MM = Missing Value Source: Averaged Metar Reports

Daily Weather History Graph

Daily Weather History Graph

Search for Another Location

Airport or City:

Trip Planner

Search our weather history database for the weather conditions in past years. The results will help you decide how hot, cold, wet, or windy it might be!

Date:

Astronomy

Feb. 12, 2014 Rise Set
Actual Time 6:02 AM SAST 7:26 PM SAST
Civil Twilight 5:36 AM SAST 7:52 PM SAST
Nautical Twilight 5:04 AM SAST 8:24 PM SAST
Astronomical Twilight 4:31 AM SAST 8:56 PM SAST
Moon 5:40 PM SAST (2/12) 3:43 AM SAST (2/12)
Length of Visible Light 14h 16m
Length of Day
13h 23m
Waxing Gibbous, 94% of the Moon is Illuminated
Feb 12
Waxing Gibbous
Feb 15
Full
Feb 22
Last Quarter
Mar 1
New
Mar 8
First Quarter

Hourly Weather History & Observations

Time (SAST) Temp. Dew Point Humidity Pressure Visibility Wind Dir Wind Speed Gust Speed Precip Events Conditions
12:00 AM 68.0 °F 64.4 °F 88% 29.92 in 6.2 mi SW 2.3 mph - N/A   Mostly Cloudy
1:00 AM 68.0 °F 64.4 °F 88% 29.89 in 6.2 mi Calm Calm - N/A   Mostly Cloudy
2:00 AM 68 °F 64 °F 84% 29.88 in 6 mi 2.3 mph - -  
2:00 AM 68.0 °F 64.4 °F 88% 29.89 in 6.2 mi SW 1.2 mph - N/A   Mostly Cloudy
3:00 AM 68.0 °F 64.4 °F 88% 29.86 in 3.7 mi East 2.3 mph - N/A   Mostly Cloudy
4:00 AM 66.2 °F 62.6 °F 88% 29.86 in 3.1 mi ENE 2.3 mph - N/A Fog Patches of Fog
5:00 AM 64 °F 61 °F 87% 29.86 in 12 mi NE 3.5 mph - -   Partly Cloudy
5:00 AM 64.4 °F 60.8 °F 88% 29.86 in 6.2 mi ENE 3.5 mph - N/A   Scattered Clouds
6:00 AM 62.6 °F 60.8 °F 94% 29.86 in 6.2 mi North 3.5 mph - N/A   Partly Cloudy
7:00 AM 62.6 °F 60.8 °F 94% 29.86 in 6.2 mi North 3.5 mph - N/A   Partly Cloudy
8:00 AM 70 °F 63 °F 72% 29.87 in 12 mi ESE 4.6 mph - -   Scattered Clouds
8:00 AM 69.8 °F 62.6 °F 78% 29.86 in 6.2 mi ESE 4.6 mph - N/A   Partly Cloudy
9:00 AM 73.4 °F 62.6 °F 69% 29.86 in 6.2 mi ESE 4.6 mph - N/A   Partly Cloudy
10:00 AM 75.2 °F 62.6 °F 65% 29.86 in 6.2 mi SE 5.8 mph - N/A   Partly Cloudy
11:00 AM 76 °F 65 °F 62% 29.86 in 12 mi SSE 9.2 mph - -   Scattered Clouds
11:00 AM 77.0 °F 66.2 °F 69% 29.86 in 6.2 mi SSE 9.2 mph - N/A   Partly Cloudy
12:00 PM 77.0 °F 66.2 °F 69% 29.83 in 6.2 mi SSE 10.4 mph - N/A   Partly Cloudy
1:00 PM 77.0 °F 66.2 °F 69% 29.83 in 6.2 mi SSE 9.2 mph - N/A   Partly Cloudy
2:00 PM 79 °F 68 °F 60% 29.83 in 12 mi SE 8.1 mph - -   Scattered Clouds
2:00 PM 78.8 °F 68.0 °F 69% 29.80 in 6.2 mi SE 8.1 mph - N/A   Partly Cloudy
3:00 PM 78.8 °F 68.0 °F 69% 29.80 in 6.2 mi SSE 12.7 mph - N/A   Partly Cloudy
4:00 PM 77.0 °F 66.2 °F 69% 29.83 in 6.2 mi SE 11.5 mph - N/A   Partly Cloudy
5:00 PM 73 °F 65 °F 70% 29.86 in 12 mi SE 8.1 mph - -   Scattered Clouds
5:00 PM 73.4 °F 66.2 °F 78% 29.86 in 6.2 mi SE 8.1 mph - N/A   Partly Cloudy
6:00 PM 71.6 °F 66.2 °F 83% 29.86 in 6.2 mi SE 6.9 mph - N/A   Partly Cloudy
7:00 PM 71.6 °F 66.2 °F 83% 29.86 in 6.2 mi South 4.6 mph - N/A   Partly Cloudy
8:00 PM 71 °F 66 °F 81% 29.90 in 12 mi SW 3.5 mph - -   Partly Cloudy
8:00 PM 69.8 °F 66.2 °F 88% 29.89 in 6.2 mi SW 3.5 mph - N/A   Scattered Clouds
9:00 PM 69.8 °F 66.2 °F 88% 29.86 in 6.2 mi ENE 8.1 mph - N/A   Partly Cloudy
10:00 PM 69.8 °F 66.2 °F 88% 29.89 in 6.2 mi SSW 5.8 mph - N/A   Scattered Clouds
11:00 PM 69.8 °F 66.2 °F 88% 29.92 in 6.2 mi North 3.5 mph - N/A   Mostly Cloudy